{"data":{"norad_id":52461,"epoch":"2026-09-19T16:40:40.688832Z","epoch_age_seconds":132877,"freshness":"FRESH","line1":"1 52461U 22049L   26262.69491538  .00002104  00000+0  75330-4 0  9996","line2":"2 52461  53.1581 247.7758 0001361  96.0639 264.0518 15.33530034241816","mean_motion":15.33530034,"eccentricity":0.0001361,"inclination_deg":53.1581,"raan_deg":247.7758,"arg_perigee_deg":96.0639,"mean_anomaly_deg":264.0518,"bstar":7.533e-5,"rev_number":24181,"period_min":93.900997572507,"perigee_km":464.3587943716,"apogee_km":466.2215752513,"semimajor_km":6843.4271848115,"source":"CELESTRAK","updated_at":"2026-09-20T09:00:40.033316Z"}}